Terminal Aerodrome Forecast
Issued by NWS Louisville, KY

Home | Current Version | Previous Version | Text Only | Print | Product List | Glossary On
Versions: 1 2 3 4 5 6 7 8 9 10 11 12 13 14 15 16 17 18 19
000
FTUS43 KLMK 310300 AAC
TAFSDF
TAF AMD
KSDF 310336Z 3104/0106 21014G23KT P6SM VCSH SCT040 SCT070
     FM310400 19010KT 6SM -SHRA BR BKN035
     FM310500 19010KT P6SM BKN040
     FM310700 22011KT P6SM VCSH BKN028
     FM311000 23009KT P6SM BKN016
     FM311600 VRB06KT P6SM SCT025 BKN200=

USA.gov is the U.S. government's official web portal to all federal, state and local government web resources and services.